Location: Pinawa
(50.1500°N, 95.8830°W)
Time: 02:26:32
(UTC-06:00)

Daily predictions for brighter satellites

Satellite Brightness Start Highest point End
(mag) Time Altitude Azimuth Time Altitude Azimuth Time Altitude Azimuth
Cosmos 2333 Rocket 4.4 03:45:24 19° NE 03:45:24 19° NE 03:47:03 10° NE
SL-16 R/B 3.9 04:05:26 27° ESE 04:06:01 27° ESE 04:10:43 10° NE
CENTAUR R/B 3.4 04:12:47 45° ESE 04:12:47 45° ESE 04:19:13 10° NE
CZ-4C R/B 4.1 04:19:48 25° NNE 04:19:48 25° NNE 04:23:32 10° NE
ATLAS 3B R/B 3.9 04:31:38 31° N 04:31:38 31° N 04:36:45 10° NE
Cosmos 2237 Rocket 3.3 04:38:25 37° NNE 04:38:25 37° NNE 04:41:45 10° NNE
NOSS 3-2 (C) 4.1 04:43:50 48° N 04:43:50 48° N 04:49:21 10° NE
Lacrosse 4 Rocket 4.2 04:46:30 11° NNE 04:46:30 11° NNE 04:47:47 10° NE
ADEOS II 3.4 04:42:53 10° NNE 04:45:34 31° NNE 04:45:34 31° NNE
Meteor 1-18 Rocket 4.3 04:54:57 69° NNE 04:55:38 79° ENE 05:01:35 10° SSE
Cosmos 2369 Rocket 3.4 04:57:45 26° N 05:00:08 37° NE 05:05:25 10° ESE
Cosmos 2056 Rocket 4.0 05:02:29 48° NNE 05:03:25 56° ENE 05:08:27 10° SE
SKYMED 2 4.3 05:01:29 10° SE 05:05:42 51° ENE 05:05:45 51° ENE
Cosmos 292 Rocket 4.4 05:04:40 40° SSE 05:06:02 55° ESE 05:10:45 10° NNE
Cosmos 2151 Rocket 4.2 05:03:48 10° S 05:08:12 55° E 05:12:36 10° NNE
NOSS 3-2 (A) 4.2 05:09:23 40° NNW 05:09:23 40° NNW 05:15:42 10° NE
Cosmos 1980 4.4 05:12:01 40° N 05:12:01 40° N 05:16:00 10° NNE
ADEOS Rocket 4.5 05:05:31 10° N 05:07:31 21° N 05:07:31 21° N
Cosmos 2219 Rocket 3.4 05:15:39 28° N 05:15:39 28° N 05:18:50 10° NNE
Lacrosse 5 rocket 2.7 05:15:07 33° NNE 05:15:07 33° NNE 05:17:50 10° NE
ATLAS 5 CENTAUR R/B 3.7 05:15:07 21° N 05:15:07 21° N 05:19:11 10° NE
Cosmos 1624 Rocket 4.1 05:16:12 54° N 05:17:24 76° ENE 05:22:41 10° SSE
Cosmos 1709 Rocket 4.2 05:18:46 50° NW 05:18:46 50° NW 05:23:46 10° N
Meteor 1-20 Rocket 4.5 05:12:28 10° S 05:17:58 66° E 05:23:26 10° NNE
USA 32 3.9 05:17:20 49° N 05:18:50 90° SW 05:24:04 10° S
Cosmos 923 Rocket 3.8 05:20:14 78° W 05:20:24 79° WNW 05:25:44 10° NNE
Cosmos 1371 Rocket 3.9 05:21:11 70° NW 05:21:48 85° WSW 05:27:05 10° SSE
Cosmos 1536 Rocket 4.0 05:24:46 51° S 05:24:46 51° S 05:28:06 10° S
Cosmos 2333 Rocket 3.1 05:27:26 33° NNW 05:27:26 33° NNW 05:31:21 10° NNE
Okean-O 4.4 05:23:22 10° N 05:24:55 21° N 05:24:55 21° N
Meteor 1-14 Rocket 4.2 05:35:01 49° WSW 05:36:03 57° WNW 05:41:33 10° N
USA 215 3.6 05:31:36 10° ENE 05:38:05 62° SE 05:44:09 12° SW
Tiangong 2 3.3 05:38:56 20° SSE 05:38:56 20° SSE 05:40:59 10° ESE
Okean 1 4.3 05:42:07 34° SSW 05:42:07 34° SSW 05:44:32 10° S
SJ-6F 4.3 05:37:40 10° NNE 05:41:47 88° W 05:45:51 10° SSW
Cosmos 921 Rocket 4.0 05:44:57 34° SW 05:44:57 34° SW 05:47:54 10° S
Okean 1 Rocket 3.8 05:43:39 10° S 05:47:56 53° E 05:52:13 10° NNE
Cosmos 1680 Rocket 3.4 05:46:28 35° SW 05:48:34 61° WNW 05:53:45 10° NNE
SL-16 R/B 2.2 05:47:25 34° WSW 05:49:47 59° NW 05:55:24 10° NNE
Cosmos 1943 Rocket 3.2 05:45:53 15° NNW 05:50:09 41° NE 05:55:20 10° ESE
Meteor 1-11 Rocket 4.4 05:46:42 10° S 05:52:25 58° E 05:58:02 10° NNE
Cosmos 1452 Rocket 3.9 05:48:54 17° NNW 05:52:55 63° ENE 05:58:09 10° SE
COSMO-SKYMED 1 2.6 05:49:28 10° S 05:53:44 55° W 05:54:20 50° WNW
Cosmos 1602 4.2 05:50:10 10° S 05:54:04 61° E 05:58:00 10° NNE
Okean 1-7 Rocket 3.6 05:51:16 15° N 05:54:55 79° ENE 05:59:19 10° SSE
Meteor 1-25 Rocket 4.3 05:49:44 10° SSW 05:55:30 60° WNW 06:01:16 10° N
Cosmos 1238 Rocket 4.2 05:57:07 32° WSW 05:57:07 32° WSW 06:00:57 10° SSW
Cosmos 1346 Rocket 3.6 05:58:39 34° SW 05:58:39 34° SW 06:01:16 10° SSW
COSMOS 2428 4.4 05:59:22 16° NNW 05:59:22 16° NNW 06:02:22 10° N
Meteor 1-13 Rocket 4.2 05:53:40 10° NNW 05:59:38 75° W 06:05:34 10° S
Nadezhda 3 Rocket 4.0 05:54:44 10° N 06:01:07 84° W 06:07:30 10° S
Cosmos 2360 Rocket 4.3 06:02:42 11° NNW 06:02:42 11° NNW 06:04:09 10° N
CENTAUR R/B 2.8 06:00:01 29° W 06:03:17 55° NW 06:10:25 10° NE
Cosmos 2263 4.4 05:58:58 17° NNW 06:03:20 70° ENE 06:08:55 10° SE
NOAA 6 4.0 06:00:00 10° N 06:05:04 61° WNW 06:10:06 10° SSW
Cosmos 2112 Rocket 4.1 06:04:00 17° SW 06:07:51 50° WNW 06:12:56 10° NNE
CZ-4C R/B 4.0 06:04:58 18° NNW 06:08:20 27° N 06:14:13 10° ENE
Cosmos 1633 2.6 06:05:07 10° S 06:08:45 79° E 06:12:25 10° NNE
Meteor 1-23 Rocket 4.3 06:07:01 10° N 06:12:38 77° ENE 06:18:11 10° SSE
CZ-4 R/B 2.9 06:10:26 10° NNE 06:14:11 38° E 06:17:51 10° SSE
Meteor 1-28 Rocket 3.3 06:13:24 10° S 06:17:07 53° W 06:19:05 25° NNW
USA 129 3.8 06:15:05 10° S 06:15:53 20° S 06:15:53 20° S
Cosmos 1300 Rocket 3.5 06:13:41 10° SSW 06:18:05 63° WNW 06:22:28 10° N
Cosmos 2237 Rocket 3.3 06:20:16 22° NW 06:20:55 23° NW 06:25:21 10° NNE
SL-23 DEB 3.4 06:20:42 38° W 06:21:41 64° SSW 06:25:09 10° ESE
ATLAS 3B R/B 4.0 06:18:54 16° NW 06:23:19 28° N 06:29:08 10° ENE
Radarsat Rocket 4.4 06:16:40 10° NNE 06:23:23 67° WNW 06:30:59 10° SSW
Lacrosse 5 3.1 06:18:34 10° SSW 06:23:24 44° SE 06:28:14 10° ENE
Cosmos 2341 Rocket 4.0 06:19:21 10° S 06:25:40 88° E 06:31:58 10° N
Cosmos 2074 Rocket 4.3 06:20:05 10° SW 06:25:59 41° WNW 06:31:53 10° N
Lacrosse 4 Rocket 2.5 06:22:51 14° NNW 06:26:12 40° NE 06:30:06 10° ESE
ADEOS II 3.5 06:23:39 10° NNW 06:26:31 19° NW 06:26:31 19° NW
Meteor 2-4 Rocket 3.6 06:23:10 10° NNW 06:28:38 72° W 06:34:12 10° S
Cosmos 1900 4.3 06:25:52 19° NW 06:29:28 89° ENE 06:34:24 10° SE
Cosmos 1340 3.0 06:26:24 10° N 06:30:11 66° ENE 06:33:58 10° SSE
Cosmos 1536 2.7 06:26:21 10° S 06:30:21 87° W 06:34:24 10° N
CSL-04 Rocket 3.7 06:26:44 10° NNE 06:32:20 79° WNW 06:37:50 10° SSW
Cosmos 192 4.2 06:28:21 10° SSW 06:33:16 77° WNW 06:38:12 10° NNE
CSL-04 Debris 4.2 06:28:14 10° NNE 06:33:43 88° WNW 06:39:12 10° SSW
PAYLOAD A 4.4 06:29:15 10° NNE 06:34:36 75° ESE 06:40:01 10° S
Cosmos 44 Rocket 3.7 06:29:47 10° SSW 06:34:56 71° SE 06:40:01 10° NE
IRS-1A Rocket 4.5 06:29:36 10° NNE 06:35:18 79° ESE 06:41:05 10° SSW
Cosmos 1455 Rocket 4.4 06:38:26 10° SSE 06:42:31 42° E 06:46:37 10° NNE
Cosmos 2369 Rocket 2.5 06:39:34 14° NW 06:44:19 48° WSW 06:49:45 10° S
Meteor 1-5 Rocket 4.4 06:39:07 10° S 06:44:27 72° E 06:49:45 10° NNE
SPOT 3 Rocket 4.2 06:40:27 10° NNE 06:45:34 59° ESE 06:50:38 10° S
Cosmos 1603 3.8 06:41:48 10° SW 06:47:24 55° NW 06:52:58 10° NNE
Cosmos 1420 Rocket 4.0 06:43:52 10° NNW 06:49:10 79° WSW 06:54:23 10° SSE
Lacrosse 5 rocket 2.5 06:50:50 16° NW 06:53:37 32° N 06:57:39 10° ENE
Helios 1B rocket 2.4 06:49:41 10° S 06:53:48 66° WSW 06:57:58 10° NNW
Cosmos 2154 Rocket 4.2 06:50:21 10° SW 06:56:17 46° WNW 07:02:16 10° N
Cosmos 2219 Rocket 4.0 06:57:23 11° NW 06:59:17 13° NNW 07:01:44 10° N
Ariane Rocket 3.4 06:56:06 10° N 07:00:45 38° WNW 07:05:24 10° SW
ATLAS 5 CENTAUR R/B 3.7 06:56:45 10° NW 07:01:22 26° NNE 07:06:19 10° ENE
Meteor 1-29 3.0 07:00:57 10° S 07:04:16 58° WSW 07:07:38 10° NNW
IDEFIX/ARIANE 42P 2.6 07:00:01 10° NNE 07:05:15 88° ESE 07:10:28 10° SSW
SJ-7 4.4 07:03:02 10° NNE 07:07:16 86° WNW 07:11:25 10° SSW
YAOGAN 1 2.5 07:04:04 10° NNE 07:08:26 86° WNW 07:12:46 10° SSW
Cosmos 2333 Rocket 4.0 07:09:30 10° NW 07:12:04 13° NNW 07:14:37 10° N
Cosmos 1975 3.6 07:08:57 10° S 07:12:58 57° E 07:17:01 10° NNE
Cosmos 1943 3.2 07:07:50 10° SW 07:13:26 69° WNW 07:19:07 10° NNE
AQUARIUS 4.1 07:09:21 10° N 07:13:51 72° WNW 07:18:20 10° SSW
Cosmos 1515 3.7 07:10:10 10° N 07:14:02 89° NE 07:17:53 10° S
Tiangong 2 3.3 07:12:16 10° WSW 07:14:34 19° S 07:16:51 10° SE
Cosmos 1025 Rocket 4.1 07:11:04 10° NNW 07:14:45 26° W 07:18:23 10° SW
CZ-4 R/B 4.5 07:13:00 10° NNE 07:17:12 87° WNW 07:21:22 10° SSW
Cosmos 1602 Rocket 3.7 07:16:21 10° N 07:20:53 83° E 07:25:21 10° S
USA 215 3.3 07:14:42 10° ENE 07:21:10 64° NNW 07:27:36 10° W
Abrixas rocket 3.9 07:21:01 10° SW 07:24:08 35° SSE 07:27:15 10° E
MOS 1 4.3 07:19:35 10° NNE 07:25:15 73° WNW 07:30:52 10° SSW
Okean 1 Rocket 4.4 07:23:00 10° WSW 07:26:11 19° WNW 07:29:23 10° NNW
Resurs 01 Rocket 4.5 07:25:20 10° NE 07:28:36 20° E 07:31:51 10° SE
Cosmos 1544 Rocket 3.7 07:26:28 10° SSW 07:30:43 51° WNW 07:35:02 10° N
SL-8 Rocket 4.2 07:25:28 10° SSW 07:31:34 52° WNW 07:37:39 10° N
